Location: Exeidioux
(45.6312°N, 1.6819°E)
Time: 13:52:45
(UTC+00:00)

USA 305 - Pass Details

Date: 03 March 2021
Orbit: 564 x 577 km, 54.0° (Epoch: 10 April)

Event Time Altitude Azimuth Distance (km) Brightness Sun altitude
Rises 18:03:19 0° 270° (W) 2,782 9.2 -4.4°
Reaches altitude 10° 18:05:46 10° 281° (W) 1,883 7.1 -4.8°
Maximum altitude 18:09:38 32° 345° (NNW) 998 4.3 -5.4°
Drops below altitude 10° 18:13:30 10° 50° (NE) 1,879 5.1 -6.1°
Enters shadow 18:14:51 - 56° (ENE) 2,367 5.5 -6.4°
